ECMII LEGE-LERS

Flight info

Callsign ECMII
Flight time N/A
Altitude 1234
Route VFR
Aircraft MI2/L-V/N

Departure

Time 2026-04-27 15:13
Airport Girona-Costa Brava Airport (LEGE)

Arrival

Time N/A
Airport Reus Airport (LERS)
Time Latitude Longitude Altitude Speed Heading
2026-04-27 15:00 41.90278 2.76489 418 ft 0 kts 194°
2026-04-27 15:04 41.90265 2.76484 419 ft 5 kts 198°
2026-04-27 15:04 41.90247 2.76434 415 ft 7 kts 174°
2026-04-27 15:04 41.90204 2.76361 431 ft 15 kts 288°
2026-04-27 15:05 41.90338 2.76381 430 ft 26 kts 11°
2026-04-27 15:05 41.90557 2.76460 450 ft 37 kts 24°
2026-04-27 15:05 41.90785 2.76546 465 ft 32 kts 17°
2026-04-27 15:05 41.91009 2.76636 468 ft 34 kts 14°
2026-04-27 15:06 41.91228 2.76728 468 ft 33 kts
2026-04-27 15:06 41.91449 2.76742 485 ft 34 kts 320°
2026-04-27 15:06 41.91450 2.76592 500 ft 32 kts 192°
2026-04-27 15:06 41.91120 2.76467 488 ft 60 kts 198°
2026-04-27 15:07 41.90687 2.76298 504 ft 69 kts 199°
2026-04-27 15:07 41.90203 2.76110 465 ft 72 kts 202°
2026-04-27 15:07 41.89754 2.75957 448 ft 64 kts 195°
2026-04-27 15:07 41.89373 2.75808 475 ft 51 kts 207°
2026-04-27 15:08 41.89044 2.75682 487 ft 51 kts 195°
2026-04-27 15:08 41.88723 2.75555 511 ft 50 kts 190°
2026-04-27 15:08 41.88324 2.75588 502 ft 65 kts 171°
2026-04-27 15:08 41.87886 2.75772 528 ft 67 kts 163°
2026-04-27 15:09 41.87447 2.76036 577 ft 69 kts 160°
2026-04-27 15:09 41.87026 2.76311 685 ft 65 kts 158°
2026-04-27 15:09 41.86622 2.76576 781 ft 64 kts 157°
2026-04-27 15:09 41.86221 2.76846 845 ft 67 kts 157°
2026-04-27 15:10 41.85750 2.77075 834 ft 76 kts 170°
2026-04-27 15:10 41.85198 2.77179 792 ft 84 kts 174°
2026-04-27 15:10 41.84629 2.77283 840 ft 80 kts 181°
2026-04-27 15:10 41.84049 2.77382 775 ft 89 kts 181°
2026-04-27 15:11 41.83415 2.77507 724 ft 93 kts 171°
2026-04-27 15:11 41.82804 2.77826 701 ft 96 kts 161°
2026-04-27 15:11 41.82237 2.78267 756 ft 91 kts 154°
2026-04-27 15:11 41.81733 2.78731 789 ft 85 kts 150°
2026-04-27 15:12 41.81275 2.79202 828 ft 82 kts 149°
2026-04-27 15:12 41.80823 2.79621 849 ft 78 kts 155°
2026-04-27 15:12 41.80331 2.79924 867 ft 80 kts 162°
2026-04-27 15:12 41.79793 2.80204 840 ft 85 kts 163°
2026-04-27 15:13 41.79271 2.80597 858 ft 88 kts 143°
2026-04-27 15:13 41.78971 2.81294 966 ft 88 kts 108°
2026-04-27 15:13 41.78841 2.82086 1053 ft 84 kts 105°
2026-04-27 15:13 41.78730 2.82834 1135 ft 79 kts 104°
2026-04-27 15:14 41.78625 2.83536 1259 ft 75 kts 104°
2026-04-27 15:14 41.78489 2.84197 1408 ft 74 kts 111°
2026-04-27 15:14 41.78230 2.84853 1421 ft 85 kts 126°
2026-04-27 15:14 41.77891 2.85527 1468 ft 89 kts 127°
2026-04-27 15:15 41.77515 2.86225 1443 ft 98 kts 130°
2026-04-27 15:15 41.77064 2.86954 1326 ft 105 kts 137°
2026-04-27 15:15 41.76534 2.87613 1201 ft 102 kts 142°
2026-04-27 15:15 41.76013 2.88260 1088 ft 103 kts 139°
2026-04-27 15:16 41.75511 2.88945 1021 ft 103 kts 139°
2026-04-27 15:16 41.74985 2.89616 958 ft 107 kts 140°
2026-04-27 15:16 41.74449 2.90338 863 ft 108 kts 139°
2026-04-27 15:16 41.73934 2.91037 814 ft 101 kts 139°
2026-04-27 15:17 41.73467 2.91720 817 ft 100 kts 133°
2026-04-27 15:17 41.73029 2.92438 801 ft 99 kts 133°
2026-04-27 15:17 41.72518 2.93044 800 ft 98 kts 153°
2026-04-27 15:17 41.71873 2.93295 785 ft 96 kts 180°
2026-04-27 15:18 41.71283 2.92942 748 ft 95 kts 228°
2026-04-27 15:18 41.70987 2.92141 700 ft 97 kts 246°
2026-04-27 15:18 41.70757 2.91296 661 ft 97 kts 249°
2026-04-27 15:18 41.70549 2.90409 568 ft 101 kts 251°
2026-04-27 15:19 41.70375 2.89528 562 ft 96 kts 252°
2026-04-27 15:19 41.70219 2.88637 491 ft 100 kts 256°
2026-04-27 15:19 41.70058 2.87748 484 ft 97 kts 254°
2026-04-27 15:19 41.69880 2.86878 451 ft 96 kts 251°
2026-04-27 15:20 41.69701 2.86029 459 ft 92 kts 250°
2026-04-27 15:20 41.69505 2.85224 494 ft 91 kts 248°
2026-04-27 15:20 41.69300 2.84425 561 ft 86 kts 243°
2026-04-27 15:20 41.69037 2.83667 536 ft 94 kts 248°
2026-04-27 15:21 41.68841 2.82801 448 ft 101 kts 254°
2026-04-27 15:21 41.68549 2.81962 359 ft 103 kts 233°
2026-04-27 15:21 41.68066 2.81315 352 ft 96 kts 216°
2026-04-27 15:21 41.67568 2.80767 339 ft 90 kts 220°
2026-04-27 15:22 41.67123 2.80164 325 ft 91 kts 225°
2026-04-27 15:22 41.66728 2.79580 440 ft 77 kts 222°
2026-04-27 15:22 41.66362 2.79115 557 ft 72 kts 207°
2026-04-27 15:22 41.65934 2.78730 603 ft 76 kts 216°
2026-04-27 15:23 41.65566 2.78167 608 ft 84 kts 231°
2026-04-27 15:23 41.65228 2.77521 643 ft 87 kts 231°
2026-04-27 15:23 41.64897 2.76822 668 ft 89 kts 240°
2026-04-27 15:23 41.64651 2.76052 660 ft 94 kts 246°
2026-04-27 15:24 41.64399 2.75192 567 ft 100 kts 244°
2026-04-27 15:24 41.64080 2.74387 545 ft 99 kts 239°
2026-04-27 15:24 41.63756 2.73570 502 ft 98 kts 240°
2026-04-27 15:24 41.63455 2.72737 479 ft 101 kts 243°
2026-04-27 15:25 41.63153 2.71918 485 ft 100 kts 236°